Location: *
(50.3194°N, 7.1067°E)
Time: 12:53:19
(UTC+00:00)

Cosmos 2082 Rocket - Pass Details

Date: 22 September 2019
Orbit: 831 x 855 km, 71.0° (Epoch: 18 October)

Event Time Altitude Azimuth Distance (km) Brightness Sun altitude
Rises 21:28:48 0° 331° (NNW) 3,436 6.4 -33.8°
Reaches altitude 10° 21:32:14 10° 352° (N) 2,499 5.3 -34.2°
Maximum altitude 21:35:53 17° 31° (NNE) 2,048 4.4 -34.5°
Enters shadow 21:36:16 17° 36° (NE) 2,053 4.3 -34.5°
